Location: Stilling
(56.0622°N, 9.9882°E)
Time: 23:43:59
(UTC+00:00)

Cosmos 304 Rocket - Pass Details

Date: 13 July 2020
Orbit: 679 x 688 km, 74.0° (Epoch: 14 August)

Event Time Altitude Azimuth Distance (km) Brightness Sun altitude
Rises 21:08:36 0° 332° (NNW) 3,072 9.8 -7.0°
Reaches altitude 10° 21:10:57 10° 335° (NNW) 2,152 8.1 -7.2°
Maximum altitude 21:15:46 63° 57° (ENE) 771 4.1 -7.5°
Drops below altitude 10° 21:20:32 10° 139° (SE) 2,137 5.7 -7.9°
Enters shadow 21:20:40 - 140° (SE) 2,183 5.7 -7.9°
